Regional Weather Roundup
Issued by NWS

Home | Current Version | Previous Version | Text Only | Print | Product List | Glossary On
Versions: 1 2 3 4 5 6 7 8 9 10 11 12 13 14 15 16 17 18 19 20 21 22 23 24 25 26 27 28 29 30 31 32 33 34 35 36 37 38 39 40 41 42 43 44 45 46 47 48 49 50
000
ASUS42 KTBW 040116
RWRFL
FLORIDA REGIONAL WEATHER ROUNDUP
NATIONAL WEATHER SERVICE TAMPA BAY RUSKIN FL
900 PM EDT FRI JUL 03 2015

NOTE: "FAIR" INDICATES FEW OR NO CLOUDS BELOW 12,000 FEET WITH NO
SIGNIFICANT WEATHER AND/OR OBSTRUCTIONS TO VISIBILITY.


FLZ001>010-012>015-112-114-115-040200-
PANHANDLE FLORIDA

CITY           SKY/WX    TMP DP  RH WIND       PRES   REMARKS
PENSACOLA      MOCLDY    83  75  77 SW12      30.01R
PENSACOLA NAS  MOCLDY    82  76  81 SW9       30.01R
MILTON NAS     MOCLDY    83  75  77 S12       30.01
CRESTVIEW      MOCLDY    82  75  79 S5        30.03R
DUKE FIELD     FAIR      82  74  76 S9        30.01R
MARY ESTHER    PTCLDY    83  76  79 SW7       30.01R
TRI COUNTY     FAIR      80  75  84 CALM      30.04R
PANAMA CITY    FAIR      82  75  79 S7        30.03R
TYNDALL AFB    CLEAR     83  76  80 SW7       30.04R
APALACHICOLA   CLEAR     85  76  74 SW6       30.04S

STATION/POSITION SKY/WX   TEMP    WIND        PRES    WAVE   SWELL
                          AIR SEA DIR/SP/G            HT/PER HT/PER
                          (F)     (DEG/KT/KT) (MB)    (FT/S) (FT/S)
30.1N   87.6W              84 84  200/ 10/ 12 1015.8R   2/ 5   2/ 5
29.2N   88.2W              84 86  210/ 10/ 12 1017.1S   2/ 5   2/ 5
28.8N   86.0W              84 86  170/  6/  6 1018.0R   2/ 7   2/ 7
PANAMA CITY BEAC           83 83  210/  9/ 10 1016.7F
CAPE SAN BLAS    NOT AVBL
TOWER C                    82     220/  8/  8 1017.5F
28.5N   84.5W              85 88  250/  2/  4 1018.2R   2/ 4   2/ 4

$$
FLZ011-016>038-118-127-128-134-139-239-040200-
NORTH FLORIDA

CITY           SKY/WX    TMP DP  RH WIND       PRES   REMARKS
MARIANNA       PTCLDY    84  74  71 SW8       30.02R
TALLAHASSEE    PTCLDY    85  74  69 SE5       30.03R
PERRY          CLEAR     81  75  83 S5        30.05S
CROSS CITY       N/A     83  74  74 S6        30.06R
LAKE CITY      FAIR      82  72  69 SW3       30.05R
GAINESVILLE    MOCLDY    80  68  66 SW6       30.06R
MAYPORT NAS    PTCLDY    81  72  74 S10       30.04R
JACKSONVILLE   PTCLDY    84  72  67 SE8       30.03R
JAX NAS        PTCLDY    91  72  53 SE15      30.05R HX  98
JAX CRAIG      PTCLDY    84  71  65 S10       30.05R
JAX CECIL      CLEAR     84  68  58 S5        30.04R
FERNANDINA BEA FAIR      82  72  69 S12G17    30.03R
ST AUGUSTINE   PTCLDY    83  71  67 S7        30.07R

STATION/POSITION SKY/WX   TEMP    WIND        PRES    WAVE   SWELL
                          AIR SEA DIR/SP/G            HT/PER HT/PER
                          (F)     (DEG/KT/KT) (MB)    (FT/S) (FT/S)
SHELL POINT                85     210/ 14/ 18   N/A
KEATON BEACH               84     230/ 12/ 13 1017.8R
CEDAR KEY                  85     310/  2/  3 1018.5R
FERNANDINA                 82 82  150/  9/ 15 1016.3R
30.7N   81.3W                 78                N/A     2/ 9
MAYPORT                    81 81  160/  8/ 14 1017.4R
31.4N   80.9W              80 79  190/ 14/ 16 1016.5R   2/ 9   2/ 9
ST AUGUSTINE               81 74  180/ 11/ 12 1019.0R

$$
FLZ040-043>046-052-053-057-058-063-144-040200-
INTERIOR CENTRAL FLORIDA

CITY           SKY/WX    TMP DP  RH WIND       PRES   REMARKS
OCALA          CLOUDY    79  72  78 S6        30.08R
THE VILLAGES     N/A    N/A N/A N/A S13       30.00R
LEESBURG       CLOUDY    79  70  74 SW5       30.11R
SANFORD        CLOUDY    82  70  66 S10       30.10R
ORLANDO EXEC   CLOUDY    78  67  68 SW9       30.11R
ORLANDO INTL   CLOUDY    75  69  81 S8        30.12S
KISSIMMEE      TSTM      73  70  88 S12       30.13R
WINTER HAVEN   RAIN      74  72  93 SE8       30.17R FOG
LAKELAND       TSTM      73  70  88 SE8       30.15R
BARTOW         TSTM      72 N/A N/A NE7       30.18R
OKEECHOBEE     CLOUDY    79  73  83 CALM      30.11R

$$
FLZ041-047-054-059-064-141-147-040200-
EAST CENTRAL FLORIDA

CITY           SKY/WX    TMP DP  RH WIND       PRES   REMARKS
DAYTONA BEACH  MOCLDY    83  72  69 S6        30.08R
DELAND           N/A     84  73  70 S9        30.10R
NEW SMYRNA BEA CLEAR     82  73  74 SE9       30.08R
JFK SPACE CTR  LGT RAIN  81  74  78 S7        30.09R
TITUSVILLE     MOCLDY    79  75  89 S8        30.10R
CAPE CANAVERAL CLOUDY    80  76  87 S6        30.10R
PATRICK AFB    CLOUDY    83  75  78 S7        30.10R
MELBOURNE      CLOUDY    82  73  74 SW5       30.11R
VERO BEACH     MOCLDY    84  74  71 SE8       30.11R
FT PIERCE      MOCLDY    83  74  74 SE7       30.10R
STUART         PTCLDY    82  73  74 SE10      30.10R

STATION/POSITION SKY/WX   TEMP    WIND        PRES    WAVE   SWELL
                          AIR SEA DIR/SP/G            HT/PER HT/PER
                          (F)     (DEG/KT/KT) (MB)    (FT/S) (FT/S)
28.5N   80.2W              83 81  140/ 10/ 10 1018.5F
28.9N   78.5W              83 85  160/  8/ 10 1019.5S   3/ 9   3/ 9
TRIDENT PIER               80 80  140/  4/  5 1018.6F
28.4N   80.5W                 79                N/A     2/ 9
27.5N   80.2W                 82                N/A     2/ 8

$$
FLZ050-056-061-142-242-148-248-149-249-151-251-155-255-
160-260-040200-
WEST CENTRAL FLORIDA

CITY           SKY/WX    TMP DP  RH WIND       PRES   REMARKS
CRYSTAL RIVER  FAIR      81  68  65 SE3       30.08R
INVERNESS        N/A    N/A N/A N/A MISG        N/A
BROOKSVILLE    MOCLDY    78  70  76 SE13G21   30.10R
ZEPHYRHILLS    FAIR      73  68  83 CALM      30.12F
CLEARWATER     CLOUDY    85  73  67 SE10      30.09R
TAMPA INTL     CLOUDY    85  68  56 E13G23    30.11R
TAMPA EXEC     CLOUDY    82  70  65 SE6       30.12R
PLANT CITY     CLOUDY    75  72  88 E13G18    30.14S
MACDILL AFB    CLOUDY    82  74  75 E21       30.11R
PETER O KNIGHT CLOUDY    81  72  74 E13G22    30.12R
ST PETERSBURG  CLOUDY    85  74  69 SE14      30.09R
SARASOTA       CLOUDY    80  68  66 SE12      30.09R
VENICE         FAIR      79  68  69 SE8       30.12R

STATION/POSITION SKY/WX   TEMP    WIND        PRES    WAVE   SWELL
                          AIR SEA DIR/SP/G            HT/PER HT/PER
                          (F)     (DEG/KT/KT) (MB)    (FT/S) (FT/S)
CEDAR KEY                  85     310/  2/  3 1018.5R
28.5N   84.5W              85 88  250/  2/  4 1018.2R   2/ 4   2/ 4
27.3N   84.2W                 88                N/A     1/ 6
CLEARWATER BEACH           86 89  350/  6/  6 1018.3R
MIDDLE TAMPA BAY                  130/  8/  9 1018.7R
VENICE                     81 90  120/ 14/ 20 1018.6R

$$
FLZ066-069-070-075>078-162-262-165-265-040200-
SOUTHWEST FLORIDA AND KEYS

CITY           SKY/WX    TMP DP  RH WIND       PRES   REMARKS
PUNTA GORDA    TSTM      72  72 100 VRB5        N/A
FT MYERS       LGT RAIN  75  74  96 N3        30.10R
SOUTHWEST INTL LGT RAIN  74  72  93 NE5       30.11R
NAPLES         CLOUDY    76  73  91 E3        30.08R
MARCO ISLAND   PTCLDY    73  66  78 NE7       30.09R
MARATHON       PTCLDY    85  77  77 E7        30.06S HX  95
KEY WEST NAS   CLEAR     85  76  74 E15       30.05S
KEY WEST INTL  PTCLDY    85  78  80 E14       30.05F HX  96

STATION/POSITION SKY/WX   TEMP    WIND        PRES    WAVE   SWELL
                          AIR SEA DIR/SP/G            HT/PER HT/PER
                          (F)     (DEG/KT/KT) (MB)    (FT/S) (FT/S)
VENICE                     81 90  120/ 14/ 20 1018.6R
NAPLES                        89              1019.3R
26.0N   85.6W              85 86   70/ 10/ 12 1017.4R   2/ 7   2/ 7
DRY TORTUGAS               85     110/  9/  9 1017.4R
NW FL BAY                  86      60/ 10/ 14 1018.0
SAND KEY                   85     110/ 17/ 19 1017.0F
SOMBRERO KEY               85      90/ 13/ 14 1018.5R
LONG KEY                   85 88  110/ 12/ 13 1019.1R
MOLASSES REEF              84 85  100/ 11/ 12 1017.9R

$$
FLZ067-068-071>074-168-172>174-040200-
SOUTHEAST FLORIDA

CITY           SKY/WX    TMP DP  RH WIND       PRES   REMARKS
W PALM BEACH   MOCLDY    84  75  74 SE12      30.09R
FT LAUDER-EXEC MOCLDY    85  76  74 SE8       30.08R
FT LAUDERDALE  MOCLDY    84  77  79 SE8       30.08R
POMPANO BEACH  MOCLDY    85  76  74 SE12      30.08R
PEMBROKE PINES PTCLDY    84  71  65 E3        30.09S
OPA LOCKA      PTCLDY    83  74  74 SE6       30.08S
MIAMI          MOCLDY    81  72  74 CALM      30.08S
WEST KENDALL   PTCLDY    83  75  77 E10       30.08R
HOMESTEAD      PTCLDY    83  75  77 E3        30.08R

STATION/POSITION SKY/WX   TEMP    WIND        PRES    WAVE   SWELL
                          AIR SEA DIR/SP/G            HT/PER HT/PER
                          (F)     (DEG/KT/KT) (MB)    (FT/S) (FT/S)
PORT EVERGLADES            84     100/  5/  9 1018.1R
VIRGINIA KEY               84 89  100/ 11/ 13 1018.0R
LAKE WORTH                 84 87  110/ 14/ 16 1017.9R
SETTLEMENT POINT           83     130/  6/  8 1019.8S

$$




USA.gov is the U.S. government's official web portal to all federal, state and local government web resources and services.